Location: Puketoi
(40.5833°S, 176.0167°E)
Time: 14:39:38
(UTC+00:00)

Cosmos 2242 Rocket - Pass Details

Date: 08 February 2023
Orbit: 618 x 649 km, 82.5° (Epoch: 23 March)

Event Time Altitude Azimuth Distance (km) Brightness Sun altitude
Exits shadow 14:39:01 52° 204° (SSW) 818 4.2 -26.9°
Drops below altitude 10° 14:42:43 10° 178° (S) 2,089 7.0 -26.5°
Sets 14:45:01 0° 175° (S) 3,009 8.0 -26.3°
